User: anonymous   Login
Location: Buch am Rannenberg
(48.6989°N, 10.6399°E)
Time: 11:02:12
(UTC+00:00)
Language:

Cosmos 1315 Rocket - Orbit

View from above orbital plane
View from above orbital plane
View from above satellite
View from above satellite

Ground track
Ground track

The orbit data is extracted from the following two-line orbital elements,

1 12904U 81103B   20227.18292468 -.00000253  00000-0 -18935-4 0  9994
2 12904  81.1762  36.9889 0027501 224.3355 135.5666 15.05824486666468
Epoch (UTC): 14 August 2020 04:23:24
Eccentricity: 0.0027501
inclination: 81.1762°
perigee height: 530 km
apogee height: 568 km
right ascension of ascending node: 36.9889°
argument of perigee: 224.3355°
revolutions per day: 15.05824486
mean anomaly at epoch: 135.5666°
orbit number at epoch: 66646

The dashed part of the orbit path shows where the satellite is in the earth's shadow,  

DLR